Location: Recife
(8.0585°S, 34.8848°W)
Time: 07:22:58
(UTC-03:00)

Courier 1B - Pass Details

Date: 16 April 2026
Orbit: 962 x 1209 km, 28.3° (Epoch: 13 May)

Event Time Altitude Azimuth Distance (km) Brightness Sun altitude
Rises 02:32:08 0° 328° (NNW) 3,833 - -42.4°
Reaches altitude 10° 02:35:33 10° 344° (NNW) 2,926 - -41.6°
Exits shadow 02:39:51 21° 20° (NNE) 2,268 9.5 -40.5°
Maximum altitude 02:40:50 22° 31° (NNE) 2,250 9.6 -40.3°
Drops below altitude 10° 02:46:21 10° 78° (ENE) 3,063 10.8 -38.9°
Sets 02:49:59 0° 93° (E) 4,061 11.6 -38.0°
